AirNav   Air Wisconsin pilot careers
 
 558 users online  

CPF2 Bar River Airport
Bar River, Ontario, Canada

GOING TO BAR RIVER?


FAA INFORMATION EFFECTIVE 13 SEPTEMBER 2018

The information below comes from the U.S. Federal Avaition Administration (FAA). The FAA is not the official source of data for facilities located outside the United States, and THESE RECORDS ARE LIKELY NOT COMPLETE OR CORRECT.

Location

FAA Identifier: CPF2
Lat/Long: 46-25-13.0000N / 084-05-32.0000W
46-25.216667N / 084-05.533333W
46.4202778 / -84.0922222
(estimated)
Elevation: 591 ft. / 180 m
From city: 3 miles SW of BAR RIVER,
Time zone: UTC -4 (UTC -5 during Standard Time)
Zip code: 49788

Airport Operations

Airport use: Open to the public
Activation date: 04/2005
Control tower: no
ARTCC: WINNIPEG CENTER
FSS: LONDON FIC FLIGHT SERVICE STATION
Attendance: 
Segmented circle: no

Airport Communications

WX ASOS at ANJ (12 nm W): 118.375 (906-632-8501)
WX AWOS-3PT at CIU (19 nm SW): 127.575 (906-495-7134)

Nearby radio navigation aids

VOR radial/distance  VOR name  Freq  Var
SSMr091/9.2SAULT STE MARIE VOR/DME112.2004W

Airport Services

Runway Information

Runway 11/29

Dimensions: 2850 x 50 ft. / 869 x 15 m
Surface: asphalt
RUNWAY 11  RUNWAY 29
Traffic pattern: leftleft

Airport Ownership and Management from official FAA records

Ownership: Privately-owned

Instrument Procedures

There are no published instrument procedures at CPF2.

Some nearby airports with instrument procedures:

KANJ - Sault Ste Marie Municipal Airport/Sanderson Field (12 nm W)
KCIU - Chippewa County International Airport (19 nm SW)
KDRM - Drummond Island Airport (29 nm SE)
KMCD - Mackinac Island Airport (40 nm SW)
83D - Mackinac County Airport (42 nm SW)
 
Loc | Ops | Rwys | IFR | FBO | Links
Com | Nav | Svcs | Stats | Notes


 
Aerial photo
No photo
 
Airport distance calculator
Flying to Bar River Airport? Find the distance to fly.

From to CPF2

Sunrise and sunset
Times for 25-Sep-2018
 Local
(UTC-4)
 Zulu
(UTC)
Morning civil twilight06:5810:58
Sunrise07:2811:28
Sunset19:2823:28
Evening civil twilight19:5823:58

Current date and time
Zulu (UTC)  25-Sep-2018 10:21:54
Local (UTC-4)  25-Sep-2018 06:21:54
 
METAR
KANJ 
12nm W 
250955Z AUTO 13003KT 10SM OVC004 17/16 A2985 RMK AO2 RAB0857E11 SLP106 P0001 T01720161
CYAM 
18nm W 
250949Z 08002KT 4SM BR BKN006 BKN015 OVC025 16/16 A2985 RMK ST5CU2SC1 VIS N 2 SLP112 DENSITY ALT 1000FT
KCIU 
19nm SW 
250956Z AUTO 16005KT 4SM -RA BR OVC004 17/16 A2986 RMK AO2 CIG 002V007 SLP135 P0005 T01670161
TAF
CYAM 
18nm W 
250738Z 2508/2520 VRB03KT 2SM -DZ BR OVC004 TEMPO 2508/2514 6SM BR OVC006 PROB30 2512/2514 2SM TSRA BR BKN006 OVC015CB FM251400 26007KT P6SM OVC010 TEMPO 2514/2518 5SM -SHRA BR OVC007 BECMG 2515/2517 30007KT FM251800 30007KT 5SM -SHRA BR OVC007 PROB30 2518/2520 2SM TSRA BR BKN007 OVC015CB RMK NXT FCST BY 251400Z
NOTAMs
Click for the latest NOTAMs
NOTAMs are issued by the DoD/FAA and will open in a separate window not controlled by AirNav.

 

 
 

Would you like to see your business listed on this page?

 If your business provides an interesting product or service to pilots, flight crews, aircraft, or users of the Bar River Airport, you should consider listing it here.  To start the listing process, click on the button below
 
Add a business
 

Other Pages about Bar River Airport

Update a link
 
Copyright © AirNav, LLC. All rights reserved. Privacy Policy  Contact